Location: Unnamed Road
(35.9029°N, 51.9749°E)
Time: 10:06:00
(UTC+04:30)

SR - Visible Passes

Search period start: 26 May 2020 00:00
Search period end: 05 June 2020 00:00
Orbit: 581 x 874 km, 66.7° (Epoch: 24 May)

Date Brightness Start Highest point End Pass type
(mag) Time Alt. Az. Time Alt. Az. Time Alt. Az.
26 May ? 02:38:05 10° NNW 02:40:23 31° NNW 02:40:23 31° NNW visible
27 May ? 01:48:40 10° N 01:51:18 28° NNE 01:51:18 28° NNE visible
28 May ? 00:59:53 10° N 01:02:19 17° NE 01:02:19 17° NE visible
28 May ? 02:40:54 10° NW 02:41:41 15° NW 02:41:41 15° NW visible
29 May ? 01:51:01 10° NNW 01:52:46 24° NNW 01:52:46 24° NNW visible
30 May ? 01:01:40 10° N 01:03:56 25° NNE 01:03:56 25° NNE visible
31 May ? 00:12:58 10° NNE 00:15:08 15° NE 00:15:08 15° NE visible
31 May ? 01:53:47 10° NW 01:54:31 14° NW 01:54:31 14° NW visible
01 Jun ? 01:03:58 10° NNW 01:05:47 24° NNW 01:05:47 24° NNW visible
02 Jun ? 00:14:39 10° N 00:17:05 25° NNE 00:17:05 25° NNE visible
02 Jun ? 23:26:04 10° NNE 23:28:26 15° NE 23:28:26 15° NE visible
03 Jun ? 01:06:41 10° NW 01:07:49 17° NW 01:07:49 17° NW visible
04 Jun ? 00:16:54 10° NNW 00:19:12 30° NNW 00:19:12 30° NNW visible
04 Jun ? 23:27:39 10° N 23:30:37 27° NE 23:30:37 27° NE visible
